{"data":{"norad_id":51812,"epoch":"2026-09-20T02:51:39.268800Z","epoch_age_seconds":85161,"freshness":"FRESH","line1":"1 51812U 22017AW  26263.11920450  .00000453  00000+0  24551-4 0  9992","line2":"2 51812  53.1625 165.8348 0001136  89.9313 270.1820 15.34385918253579","mean_motion":15.34385918,"eccentricity":0.0001136,"inclination_deg":53.1625,"raan_deg":165.8348,"arg_perigee_deg":89.9313,"mean_anomaly_deg":270.182,"bstar":2.4551e-5,"rev_number":25357,"period_min":93.84861937973,"perigee_km":461.96797099284,"apogee_km":463.52221940487,"semimajor_km":6840.8820951989,"source":"CELESTRAK","updated_at":"2026-09-20T09:00:39.943692Z"}}